Rochester, NY

7:16 PM EDT on October 18, 2017 (GMT -0400)
Greater Rochester International

Weather History for KROC - July, 2014

Change the Weather History Date:

Thursday, July 3, 2014

  Actual Average Record
Temperature  
Mean Temperature 69 °F 70 °F  
Max Temperature 75 °F 81 °F 100 °F (1911)
Min Temperature 62 °F 60 °F 48 °F (1929)
Degree Days  
Heating Degree Days 0 1  
Month to date heating degree days 0 3  
Since 1 June heating degree days 29 71  
Since 1 July heating degree days 0 3  
Cooling Degree Days 4 6  
Month to date cooling degree days 35 18  
Year to date cooling degree days 224 154  
Since 1 June cooling degree days 185 124  
Growing Degree Days 20 (Base 50)    
Moisture  
Dew Point 65 °F    
Average Humidity 81    
Maximum Humidity 93    
Minimum Humidity 68    
Precipitation  
Precipitation 0.43 in 0.11 in 2.37 in (2013)
Month to date precipitation 0.46 0.32  
Year to date precipitation 15.52 16.12  
Snow  
Snow 0.00 in 0.00 in 0.00 in ()
Month to date snowfall 0.0 0.0  
Since 1 June snowfall 0.0 0.0  
Since 1 July snowfall 0.0 0.0  
Snow Depth 0.00 in    
Sea Level Pressure  
Sea Level Pressure 29.96 in    
Wind  
Wind Speed 4 mph (NW)    
Max Wind Speed 17 mph    
Max Gust Speed 23 mph    
Visibility 8 miles    
Events Rain    
T = Trace of Precipitation, MM = Missing Value Source: NWS Daily Summary

Daily Weather History Graph

Daily Weather History Graph

Search for Another Location

Airport or City:

Trip Planner

Search our weather history database for the weather conditions in past years. The results will help you decide how hot, cold, wet, or windy it might be!

Date:

Astronomy

Jul. 03, 2014 Rise Set
Actual Time 5:36 AM EDT 8:53 PM EDT
Civil Twilight 5:00 AM EDT 9:28 PM EDT
Nautical Twilight 4:15 AM EDT 10:14 PM EDT
Astronomical Twilight 3:19 AM EDT 11:09 PM EDT
Moon 11:43 AM EDT (7/3) No Moon Set
Length of Visible Light 16h 27m
Length of Day
15h 17m
Waxing Crescent, 33% of the Moon is Illuminated
Jul 3
Waxing Crescent
Jul 5
First Quarter
Jul 12
Full
Jul 18
Last Quarter
Jul 26
New

Hourly Weather History & Observations

Time (EDT) Temp. Dew Point Humidity Pressure Visibility Wind Dir Wind Speed Gust Speed Precip Events Conditions
12:54 AM 69.1 °F 66.0 °F 90% 29.92 in 10.0 mi Calm Calm - 0.01 in   Mostly Cloudy
1:54 AM 68.0 °F 66.0 °F 93% 29.92 in 7.0 mi WSW 3.5 mph - N/A   Scattered Clouds
2:54 AM 68.0 °F 66.9 °F 96% 29.90 in 6.0 mi Calm Calm - N/A   Overcast
3:54 AM 69.1 °F 66.0 °F 90% 29.92 in 10.0 mi WSW 5.8 mph - 0.00 in   Light Drizzle
4:54 AM 68.0 °F 66.9 °F 96% 29.92 in 8.0 mi SW 4.6 mph - 0.00 in   Overcast
5:04 AM 69.8 °F 66.2 °F 88% 29.94 in 8.0 mi WSW 3.5 mph - N/A   Overcast
5:54 AM 69.1 °F 66.0 °F 90% 29.94 in 6.0 mi Calm Calm - N/A   Overcast
6:54 AM 69.1 °F 64.0 °F 84% 29.98 in 10.0 mi Calm Calm - N/A   Overcast
7:54 AM 69.1 °F 63.0 °F 81% 29.96 in 10.0 mi Calm Calm - N/A   Overcast
8:54 AM 69.1 °F 66.9 °F 93% 29.96 in 8.0 mi SSE 4.6 mph - 0.02 in   Overcast
9:14 AM 69.8 °F 66.2 °F 88% 29.96 in 6.0 mi South 5.8 mph - N/A   Overcast
9:54 AM 72.0 °F 64.9 °F 78% 29.95 in 10.0 mi SSW 3.5 mph - N/A   Mostly Cloudy
10:54 AM 73.9 °F 64.9 °F 73% 29.96 in 10.0 mi Calm Calm - N/A   Overcast
11:54 AM 73.9 °F 63.0 °F 68% 29.96 in 10.0 mi NW 3.5 mph - N/A   Overcast
12:43 PM 69.8 °F 64.4 °F 83% 29.99 in 2.0 mi North 5.8 mph - N/A Rain Heavy Rain
12:52 PM 69.8 °F 64.4 °F 83% 29.99 in 3.0 mi North 5.8 mph - 0.07 in Rain Light Rain
12:54 PM 69.1 °F 64.9 °F 87% 29.99 in 3.0 mi NNE 5.8 mph - 0.07 in Rain Light Rain
1:01 PM 68.0 °F 64.4 °F 88% 29.98 in 2.0 mi NNE 8.1 mph - 0.02 in Rain Heavy Rain
1:24 PM 68.0 °F 66.2 °F 94% 29.96 in 5.0 mi NE 9.2 mph - 0.07 in Rain Light Rain
1:41 PM 69.8 °F 66.2 °F 88% 29.96 in 8.0 mi NNE 9.2 mph - 0.07 in   Overcast
1:54 PM 69.1 °F 64.9 °F 87% 29.97 in 10.0 mi North 10.4 mph - 0.07 in   Overcast
2:14 PM 69.8 °F 64.4 °F 83% 29.97 in 10.0 mi NNW 5.8 mph - N/A   Overcast
2:54 PM 68.0 °F 64.0 °F 87% 29.96 in 5.0 mi NNW 3.5 mph - 0.01 in Rain Light Rain
3:43 PM 69.8 °F 66.2 °F 88% 29.95 in 10.0 mi NNE 5.8 mph - 0.02 in Rain Light Rain
3:54 PM 70.0 °F 64.9 °F 84% 29.95 in 10.0 mi NNE 3.5 mph - 0.02 in   Overcast
4:54 PM 72.0 °F 64.0 °F 76% 29.96 in 10.0 mi Calm Calm - N/A   Overcast
5:54 PM 71.1 °F 63.0 °F 75% 29.95 in 10.0 mi Calm Calm - N/A   Mostly Cloudy
6:54 PM 71.1 °F 64.0 °F 78% 29.96 in 10.0 mi Calm Calm - N/A   Mostly Cloudy
7:54 PM 70.0 °F 64.9 °F 84% 29.97 in 7.0 mi Calm Calm - 0.02 in Rain Light Rain
8:54 PM 69.1 °F 64.9 °F 87% 29.97 in 10.0 mi SW 3.5 mph - 0.00 in   Mostly Cloudy
9:54 PM 68.0 °F 66.0 °F 93% 29.99 in 8.0 mi NW 10.4 mph - 0.01 in Rain Light Rain
10:00 PM 68.0 °F 64.4 °F 88% 29.99 in 1.8 mi NW 13.8 mph 21.9 mph 0.03 in Rain Heavy Rain
10:09 PM 66.2 °F 64.4 °F 94% 29.99 in 5.0 mi NNW 9.2 mph - 0.21 in Rain Light Rain
10:54 PM 64.9 °F 62.1 °F 90% 30.00 in 10.0 mi NW 8.1 mph - 0.21 in   Overcast
11:48 PM 64.4 °F 60.8 °F 88% 30.01 in 10.0 mi WNW 11.5 mph - N/A   Overcast
11:54 PM 64.0 °F 61.0 °F 90% 30.02 in 10.0 mi WNW 6.9 mph - N/A   Overcast